Volver al catálogo

STARLINK-37323

ActivoComunicacionesVLEO
NORAD 69516·PAYLOAD·🇺🇸 United States

Lanzado Jun 12, 2026 desde Cape Canaveral Space Force Station

Loading…

Próximos Pases (próximas 24 horas)

TLE

ActualizadoSource: CelesTrak SupGP

Época: Sep 14, 2026, 22:30 UTC

1 69516C 26133J   26257.93798611  .00039276  00000+0  11609-2 0  2570
2 69516  53.1561 255.7866 0001198  98.8671  94.6689 15.34358384    14

Sigue STARLINK-37323 en tiempo real con AllMySat

Download on the App Store